Ocean City, MD

2:24 AM EDT on April 27, 2017 (GMT -0400)
Ocean City Municipal

Weather History for KOXB - May, 2013

Change the Weather History Date:

Friday, May 24, 2013

  Actual Average (KSBY) Record (KSBY)
Temperature  
Mean Temperature 62 °F -  
Max Temperature 71 °F 76 °F 91 °F (1964)
Min Temperature 50 °F 55 °F 38 °F (1926)
Degree Days  
Heating Degree Days 4    
Growing Degree Days 12 (Base 50)    
Moisture  
Dew Point 58 °F    
Average Humidity 87    
Maximum Humidity 100    
Minimum Humidity 63    
Precipitation  
Precipitation 0.11 in - - ()
Sea Level Pressure  
Sea Level Pressure 29.83 in    
Wind  
Wind Speed 9 mph (NW)    
Max Wind Speed 22 mph    
Max Gust Speed 33 mph    
Visibility 9 miles    
Events Rain    
Averages and records for this station are not official NWS values.
T = Trace of Precipitation, MM = Missing Value Source: NWS Daily Summary

Daily Weather History Graph

Daily Weather History Graph

Search for Another Location

Airport or City:

Trip Planner

Search our weather history database for the weather conditions in past years. The results will help you decide how hot, cold, wet, or windy it might be!

Date:

Astronomy

May. 24, 2013 Rise Set
Actual Time 5:42 AM EDT 8:12 PM EDT
Civil Twilight 5:12 AM EDT 8:43 PM EDT
Nautical Twilight 4:34 AM EDT 9:20 PM EDT
Astronomical Twilight 3:52 AM EDT 10:03 PM EDT
Moon 7:52 PM EDT (5/24) 5:11 AM EDT (5/24)
Length of Visible Light 15h 30m
Length of Day
14h 29m
Full, 100% of the Moon is Illuminated
May 24
Full
May 25
Full
May 31
Last Quarter
Jun 8
New
Jun 16
First Quarter

Hourly Weather History & Observations

Time (EDT) Temp. Dew Point Humidity Pressure Visibility Wind Dir Wind Speed Gust Speed Precip Events Conditions
12:53 AM 66.9 °F 66.9 °F 100% 29.78 in 10.0 mi SW 6.9 mph - N/A   Overcast
1:11 AM 66.2 °F 66.2 °F 100% 29.77 in 10.0 mi SW 5.8 mph - N/A   Scattered Clouds
1:53 AM 66.9 °F 66.0 °F 97% 29.77 in 10.0 mi WSW 8.1 mph - N/A   Clear
2:14 AM 66.2 °F 66.2 °F 100% 29.76 in 10.0 mi WSW 8.1 mph - N/A   Mostly Cloudy
2:53 AM 68.0 °F 66.0 °F 93% 29.75 in 10.0 mi WSW 5.8 mph - N/A   Overcast
3:23 AM 68.0 °F 66.2 °F 94% 29.74 in 10.0 mi SW 9.2 mph - N/A   Scattered Clouds
3:53 AM 68.0 °F 66.0 °F 93% 29.73 in 10.0 mi WSW 9.2 mph - N/A   Overcast
4:12 AM 68.0 °F 66.2 °F 94% 29.74 in 10.0 mi WSW 5.8 mph - N/A   Overcast
4:53 AM 66.9 °F 66.0 °F 97% 29.74 in 8.0 mi West 5.8 mph - 0.01 in Rain Light Rain
5:53 AM 66.9 °F 66.0 °F 97% 29.74 in 9.0 mi Calm Calm - 0.01 in   Overcast
6:09 AM 66.2 °F 66.2 °F 100% 29.74 in 7.0 mi WNW 3.5 mph - N/A   Overcast
6:18 AM 66.2 °F 66.2 °F 100% 29.75 in 6.0 mi WNW 3.5 mph - N/A   Overcast
6:53 AM 66.9 °F 66.9 °F 100% 29.76 in 5.0 mi WNW 3.5 mph - N/A   Overcast
7:11 AM 66.2 °F 66.2 °F 100% 29.76 in 7.0 mi WNW 4.6 mph - N/A   Overcast
7:37 AM 66.2 °F 66.2 °F 100% 29.76 in 7.0 mi NW 4.6 mph - N/A   Mostly Cloudy
7:53 AM 68.0 °F 66.9 °F 96% 29.77 in 8.0 mi WNW 4.6 mph - N/A   Mostly Cloudy
8:02 AM 68.0 °F 66.2 °F 94% 29.77 in 9.0 mi WNW 5.8 mph - N/A   Scattered Clouds
8:53 AM 71.1 °F 66.0 °F 84% 29.78 in 10.0 mi NW 8.1 mph - N/A   Mostly Cloudy
9:27 AM 68.0 °F 64.4 °F 88% 29.79 in 10.0 mi NW 9.2 mph 17.3 mph N/A   Overcast
9:53 AM 66.9 °F 64.0 °F 90% 29.79 in 9.0 mi NNW 8.1 mph 16.1 mph N/A   Overcast
10:31 AM 66.2 °F 64.4 °F 94% 29.80 in 10.0 mi NW 12.7 mph 18.4 mph 0.01 in   Mostly Cloudy
10:50 AM 69.8 °F 62.6 °F 78% 29.80 in 10.0 mi NNW 11.5 mph 20.7 mph 0.01 in   Scattered Clouds
10:53 AM 70.0 °F 62.1 °F 76% 29.80 in 10.0 mi NNW 10.4 mph 20.7 mph 0.01 in   Mostly Cloudy
11:37 AM 64.4 °F 59.0 °F 83% 29.82 in 9.0 mi NW 15.0 mph 27.6 mph N/A   Mostly Cloudy
11:53 AM 63.0 °F 57.9 °F 84% 29.83 in 7.0 mi NW 15.0 mph 24.2 mph N/A   Overcast
12:33 PM 60.8 °F 55.4 °F 82% 29.84 in 10.0 mi NNW 21.9 mph 28.8 mph N/A   Overcast
12:53 PM 60.1 °F 55.0 °F 83% 29.84 in 10.0 mi NW 17.3 mph 25.3 mph N/A   Overcast
1:16 PM 59.0 °F 55.4 °F 88% 29.85 in 10.0 mi NW 15.0 mph 23.0 mph N/A   Overcast
1:49 PM 59.0 °F 51.8 °F 77% 29.86 in 10.0 mi NNW 19.6 mph 31.1 mph N/A   Overcast
1:53 PM 57.9 °F 51.1 °F 78% 29.86 in 10.0 mi NNW 19.6 mph 29.9 mph N/A   Overcast
2:20 PM 55.4 °F 48.2 °F 77% 29.88 in 10.0 mi NNW 20.7 mph 33.4 mph N/A   Overcast
2:53 PM 54.0 °F 52.0 °F 93% 29.88 in 6.0 mi NNW 15.0 mph 25.3 mph 0.06 in Rain Light Rain
3:53 PM 53.1 °F 51.1 °F 93% 29.91 in 10.0 mi NNW 16.1 mph 21.9 mph 0.01 in   Overcast
4:53 PM 53.1 °F 50.0 °F 89% 29.93 in 10.0 mi North 11.5 mph 18.4 mph 0.01 in   Overcast
5:05 PM 53.6 °F 48.2 °F 82% 29.93 in 10.0 mi North 11.5 mph 18.4 mph N/A   Overcast
5:53 PM 54.0 °F 48.0 °F 80% 29.94 in 10.0 mi NNW 10.4 mph 20.7 mph N/A   Mostly Cloudy
6:53 PM 54.0 °F 45.0 °F 72% 29.97 in 10.0 mi NW 10.4 mph 20.7 mph N/A   Overcast
7:53 PM 54.0 °F 44.1 °F 69% 29.99 in 10.0 mi NW 10.4 mph 18.4 mph N/A   Overcast
8:53 PM 53.1 °F 44.1 °F 71% 30.00 in 10.0 mi NNW 9.2 mph - N/A   Overcast
9:53 PM 53.1 °F 44.1 °F 71% 30.03 in 10.0 mi NW 9.2 mph - N/A   Overcast
10:53 PM 52.0 °F 43.0 °F 71% 30.05 in 10.0 mi NNW 16.1 mph 25.3 mph 0.00 in   Overcast
11:53 PM 50.0 °F 37.9 °F 63% 30.06 in 10.0 mi NNW 13.8 mph 25.3 mph N/A   Mostly Cloudy